#timestamp,LO_Frequency,Hit,StdDev 
1618367595.4,286047010.1,P
1618367615.2,286047011.8,P
1618367635.0,286047012.2,P
1618367636.0,286047012.2,Y
1618367655.8,286047000.3,P
1618367675.6,286047000.9,N
1618367695.5,286046998.7,N
1618367715.3,286047000.6,N
1618367735.1,286046999.7,N
1618367755.9,286046999.7,N
1618367775.7,286047000.1,N
1618367795.6,286046999.9,N
1618367815.4,286046999.9,N
1618367835.2,286047000.7,N
1618367855.1,286047001.0,N
1618367856.0,286047001.0,N
1618367875.8,286047000.5,N
1618367895.6,286047000.3,N
1618367915.5,286047000.7,N
1618367935.3,286047000.0,N
1618367955.1,286047000.0,N
1618367975.9,286047000.6,N
1618367995.7,286046998.6,N
1618368015.6,286046999.7,N
1618368035.4,286047000.0,N
1618368055.2,286047001.5,N
1618368075.1,286047003.8,N
1618368076.0,286047003.8,N
1618368095.8,286047001.3,N
1618368115.7,286047002.6,N
1618368135.5,286046999.9,N
1618368155.3,286047002.6,N
1618368175.2,286047001.5,N
1618368195.9,286047001.4,N
1618368215.7,286047001.5,N
1618368235.6,286046999.8,N
1618368255.4,286047002.4,N
1618368275.3,286047002.1,N
1618368295.1,286047001.9,N
1618368296.0,286047001.9,N
1618368315.8,286047001.6,N
1618368335.7,286047002.5,N
1618368355.5,286047003.9,Y
1618368375.3,286047004.0,P
1618368395.2,286047004.4,P
1618368415.0,286047003.4,N
1618368415.9,286047003.4,N
1618368435.8,286047004.4,Y
1618368455.6,286047001.0,P
1618368475.4,286047002.7,N
1618368495.3,286047002.8,N
1618368515.1,286047001.0,N
1618368535.9,286047000.0,N
1618368555.7,286047002.5,N
1618368575.5,286047002.5,N
1618368595.4,286047000.9,N
1618368615.2,286047001.0,N
1618368635.0,286047000.0,N
1618368635.9,286047000.0,N
1618368655.8,286047000.3,N
1618368705.6,286047000.7,E
1618368715.6,286047001.2,N
1618368735.4,286047000.4,P
1618368755.2,286047000.0,N
1618368775.1,286046999.8,N
1618368776.0,286046999.8,N
1618368795.8,286047002.3,Y
1618368815.7,286047003.9,P
1618368835.5,286047001.4,N
1618368855.3,286047001.7,N
1618368875.2,286047002.6,N
1618368895.9,286047003.8,Y
1618368915.7,286047000.2,P
1618368935.6,286047001.0,N
1618368955.4,286047002.4,P
1618368975.3,286047000.0,N
1618368995.1,286046999.7,N
1618368996.0,286046999.7,N
1618369015.8,286047003.2,Y
1618369035.7,286047003.5,P
1618369055.5,286047005.4,P
1618369075.3,286047005.7,N
1618369095.2,286047004.6,N
1618369115.0,286047008.9,Y
1618369115.9,286047008.9,P
1618369135.8,286047002.9,N
1618369155.6,286047005.2,N
1618369175.4,286047003.0,N
1618369195.3,286047001.3,N
